Location: ?????????
(55.6553°N, 38.9075°E)
Time: 01:08:46
(UTC+00:00)

ADEOS - Pass Details

Date: 18 October 2019
Orbit: 793 x 794 km, 98.8° (Epoch: 17 November)

Event Time Altitude Azimuth Distance (km) Brightness Sun altitude
Rises 02:27:42 0° 14° (NNE) 3,310 7.0 -13.7°
Reaches altitude 10° 02:30:08 10° 7° (N) 2,377 6.2 -13.4°
Maximum altitude 02:35:00 40° 299° (WNW) 1,157 4.0 -12.7°
Drops below altitude 10° 02:39:51 10° 231° (SW) 2,363 5.6 -12.0°
Enters shadow 02:40:18 - 229° (SW) 2,535 5.7 -11.9°
